Flag for Norway Weather past 2 weeks in Ålesund, Norway

Now
48 °F

Light rain. Partly sunny.


Feels Like: 46 °F
Forecast: 46 / 51 °F
Wind: 5 mph from Southeast

Location: Alesund / Vigra

Current Time: May 24, 2015 at 1:46:11 PM

Latest Report: May 24, 2015 at 12:50 PM


Visibility: N/A

Pressure: 29.71 "Hg

Humidity: 82%

Dew point: 43 °F

Location of ÅlesundLocation

Historic Weather in Ålesund — Graph

°F

Ålesund temperature yesterday

Maximum temperature yesterday: 45 °F (at 3:20 AM)
Minimum temperature yesterday: 41 °F (at 1:50 PM)
Average temperature yesterday: 44 °F

Past Weeks' High & Low Weather Summary

 TemperatureHumidityPressure
High59 °F (May 19, 12:20 PM)93% (May 10, 12:20 AM)30.07 "Hg (May 10, 12:20 AM)
Low37 °F (May 9, 10:50 PM)34% (May 19, 12:20 PM)29.39 "Hg (May 19, 10:20 AM)
Average47 °F75%29.78 "Hg
* Reported May 9 12:20 PM — May 24 12:50 PM, Ålesund, Weather by CustomWeather, © 2015

Note: Actual official high and low records may vary slightly from our data, if they occured in-between our weather recording intervals... More about our weather records

Advertising

Ålesund weather history for previous 24 hours

 ConditionsComfort  
Time TempWeatherWind HumidityBarometerVisibility
12:50 PM
Sun, May 24
48 °FLight rain. Partly sunny.5 mph82%29.71 "HgN/A
12:20 PM46 °FLight rain. Partly sunny.2 mph87%29.71 "HgN/A
11:50 AM46 °FLight rain. Partly sunny.5 mph82%29.71 "HgN/A
11:20 AM46 °FLight rain. Partly sunny.6 mph82%29.71 "HgN/A
10:50 AM46 °FLight rain. Broken clouds.8 mph82%29.71 "HgN/A
10:20 AM46 °FLight rain. Broken clouds.12 mph76%29.71 "HgN/A
9:50 AM46 °FPartly sunny.13 mph71%29.71 "HgN/A
9:20 AM45 °FDrizzle. Partly sunny.13 mph71%29.74 "HgN/A
8:50 AM45 °FPartly sunny.12 mph71%29.74 "HgN/A
7:50 AM43 °FDrizzle. Broken clouds.3 mph81%29.77 "HgN/A
7:20 AM43 °FBroken clouds.5 mph76%29.80 "HgN/A
6:20 AM43 °FSunny.3 mph76%29.83 "Hg10 mi
5:50 AM41 °FSunny.3 mph76%29.83 "Hg10 mi
5:20 AM41 °FBroken clouds.6 mph81%29.86 "HgN/A
4:50 AM41 °FMostly cloudy.5 mph81%29.86 "HgN/A
4:20 AM41 °FPassing clouds.7 mph81%29.86 "HgN/A
3:50 AM43 °FPassing clouds.5 mph71%29.89 "HgN/A
3:20 AM43 °FPassing clouds.6 mph71%29.89 "HgN/A
2:50 AM41 °FOvercast.7 mph76%29.92 "HgN/A
2:20 AM43 °FOvercast.10 mph71%29.92 "HgN/A
1:50 AM43 °FOvercast.10 mph71%29.95 "HgN/A
1:20 AM43 °FPassing clouds.12 mph71%29.95 "HgN/A
12:50 AM43 °FQuite cool.10 mph71%29.95 "HgN/A
12:20 AM41 °FPassing clouds.13 mph76%29.98 "HgN/A
11:50 PM
Sat, May 23
41 °FMore clouds than sun.13 mph76%29.98 "HgN/A
11:20 PM43 °FOvercast.14 mph71%30.01 "HgN/A
10:50 PM43 °FPartly sunny.12 mph71%30.01 "HgN/A
10:20 PM43 °FBroken clouds.13 mph71%30.01 "HgN/A
9:50 PM43 °FBroken clouds.12 mph76%30.04 "HgN/A
9:20 PM43 °FPartly sunny.13 mph76%30.04 "HgN/A
8:50 PM43 °FPartly sunny.17 mph71%30.04 "HgN/A
8:20 PM43 °FScattered showers. Broken clouds.15 mph71%30.04 "HgN/A
7:50 PM43 °FScattered showers. Partly sunny.14 mph71%30.07 "HgN/A
7:20 PM45 °FScattered showers. Broken clouds.16 mph66%30.07 "HgN/A
6:50 PM45 °FScattered showers. Broken clouds.16 mph71%30.07 "HgN/A
6:20 PM43 °FScattered showers. Broken clouds.16 mph76%30.07 "HgN/A
5:50 PM45 °FScattered showers. Broken clouds.18 mph66%30.07 "HgN/A
5:20 PM45 °FScattered showers. Broken clouds.16 mph66%30.07 "HgN/A
4:50 PM45 °FScattered showers. Broken clouds.17 mph66%30.07 "HgN/A
4:20 PM43 °FScattered showers. Broken clouds.13 mph76%30.07 "HgN/A
3:50 PM43 °FScattered showers. Broken clouds.13 mph81%30.07 "HgN/A
3:20 PM43 °FSprinkles. Broken clouds.17 mph71%30.07 "HgN/A
2:20 PM45 °FBroken clouds.17 mph71%30.07 "HgN/A
1:50 PM41 °FDrizzle. Broken clouds.18 mph81%30.07 "HgN/A
1:20 PM45 °FBroken clouds.20 mph71%30.04 "HgN/A
Weather by CustomWeather, © 2015

See weather overviewHow to use our weather pages